Tracking 19153 objects as of 26-Apr-2018
HD Live streaming from Space Station
objects crossing your sky now

COSMOS 2168

Track COSMOS 2168 now!
10-day predictions
COSMOS 2168 is classified as:


NORAD ID: 21782
Int'l Code: 1991-077D
Perigee: 1,397.0 km
Apogee: 1,418.3 km
Inclination: 82.6 °
Period: 113.8 minutes
Semi major axis: 7778 km
RCS: 1.1161 m2 (large)
Launch date: November 12, 1991
Source: Commonwealth of Independent States (former USSR) (CIS)
Launch site: PLESETSK MISSILE AND SPACE COMPLEX (PKMTR)
aabbcc
Your satellite tracking list
Your tracking list is empty




NASA's NSSDC Master Catalog

Two Line Element Set (TLE):
1 21782U 91077D   18115.96699442 +.00000034 +00000-0 +12375-3 0  9997
2 21782 082.5943 317.1090 0013675 330.0690 141.9643 12.65455253221604
Source of the keplerian elements: AFSPC